Weather History for KRUT - November, 2010

Change the Weather History Date:

Friday, November 26, 2010

  Actual Average Record
Temperature  
Mean Temperature 36 °F -  
Max Temperature 42 °F - 66 °F (1979)
Min Temperature 30 °F - 7 °F (1993)
Degree Days  
Heating Degree Days 29    
Month to date heating degree days  
Since 1 July heating degree days  
Cooling Degree Days 0    
Month to date cooling degree days  
Year to date cooling degree days  
Moisture  
Dew Point 24 °F    
Average Humidity 64    
Maximum Humidity 87    
Minimum Humidity 41    
Precipitation  
Precipitation 0.10 in - 1.13 in (1998)
Month to date precipitation  
Year to date precipitation  
Sea Level Pressure  
Sea Level Pressure 29.57 in    
Wind  
Wind Speed 13 mph (SSW)    
Max Wind Speed 18 mph    
Max Gust Speed 30 mph    
Visibility 10 miles    
Events      
T = Trace of Precipitation, MM = Missing Value Source: NWS Daily Summary

Daily Weather History Graph

Daily Weather History Graph

Search for Another Location

Airport or City:

Trip Planner

Search our weather history database for the weather conditions in past years. The results will help you decide how hot, cold, wet, or windy it might be!

Date:

Astronomy

Nov. 26, 2010 Rise Set
Actual Time 6:59 AM EST 4:18 PM EST
Civil Twilight 6:27 AM EST 4:50 PM EST
Nautical Twilight 5:52 AM EST 5:25 PM EST
Astronomical Twilight 5:17 AM EST 6:00 PM EST
Moon 9:27 PM EST (11/26) 11:02 AM EST (11/26)
Length of Visible Light 10h 22m
Length of Day
9h 19m
Waning Gibbous, 73% of the Moon is Illuminated
Nov 26
Waning Gibbous
Nov 28
Last Quarter
Dec 5
New
Dec 13
First Quarter
Dec 21
Full

Hourly Weather History & Observations

Time (EST) Temp. Windchill Dew Point Humidity Pressure Visibility Wind Dir Wind Speed Gust Speed Precip Events Conditions
12:15 AM 35.6 °F 28.0 °F 14.0 °F 41% 29.81 in 10.0 mi SE 10.4 mph - N/A   Overcast
12:35 AM 35.6 °F 26.6 °F 15.8 °F 44% 29.78 in 10.0 mi ESE 13.8 mph - N/A   Overcast
12:55 AM 35.6 °F 26.6 °F 17.6 °F 48% 29.76 in 10.0 mi ESE 13.8 mph 21.9 mph N/A   Overcast
1:15 AM 35.6 °F 26.2 °F 19.4 °F 52% 29.74 in 10.0 mi SE 15.0 mph 23.0 mph N/A   Overcast
1:35 AM 33.8 °F 23.5 °F 24.8 °F 70% 29.73 in 10.0 mi ESE 16.1 mph 23.0 mph N/A   Overcast
1:55 AM 33.8 °F 23.5 °F 26.6 °F 75% 29.72 in 10.0 mi ESE 16.1 mph 20.7 mph N/A   Overcast
2:15 AM 33.8 °F 22.8 °F 26.6 °F 75% 29.69 in 10.0 mi ESE 18.4 mph 25.3 mph 0.01 in   Overcast
2:35 AM 33.8 °F 22.8 °F 26.6 °F 75% 29.68 in 10.0 mi SE 18.4 mph 26.5 mph 0.01 in   Overcast
2:55 AM 33.8 °F 22.8 °F 26.6 °F 75% 29.66 in 10.0 mi ESE 18.4 mph 24.2 mph 0.01 in   Overcast
3:15 AM 33.8 °F 23.2 °F 28.4 °F 81% 29.65 in 10.0 mi ESE 17.3 mph 23.0 mph 0.01 in   Overcast
3:35 AM 33.8 °F 23.2 °F 28.4 °F 81% 29.64 in 10.0 mi SE 17.3 mph 24.2 mph 0.01 in   Overcast
3:55 AM 33.8 °F 22.8 °F 28.4 °F 81% 29.61 in 8.0 mi ESE 18.4 mph 23.0 mph 0.02 in   Overcast
4:15 AM 33.8 °F 23.9 °F 30.2 °F 87% 29.57 in 10.0 mi ESE 15.0 mph 23.0 mph N/A   Overcast
4:35 AM 35.6 °F 27.5 °F 30.2 °F 81% 29.55 in 9.0 mi SE 11.5 mph 25.3 mph 0.01 in   Overcast
4:55 AM 35.6 °F 26.6 °F 30.2 °F 81% 29.54 in 10.0 mi SE 13.8 mph - 0.03 in   Mostly Cloudy
5:15 AM 35.6 °F 26.2 °F 30.2 °F 81% 29.53 in 9.0 mi SE 15.0 mph 20.7 mph 0.01 in   Overcast
5:35 AM 35.6 °F 25.9 °F 30.2 °F 81% 29.52 in 10.0 mi SE 16.1 mph - 0.03 in   Overcast
5:55 AM 35.6 °F 25.5 °F 32.0 °F 87% 29.52 in 10.0 mi ESE 17.3 mph 23.0 mph 0.03 in   Overcast
6:15 AM 35.6 °F 25.5 °F 32.0 °F 87% 29.49 in 10.0 mi SE 17.3 mph 24.2 mph 0.01 in   Overcast
6:35 AM 37.4 °F 27.8 °F 32.0 °F 81% 29.49 in 10.0 mi SE 17.3 mph 24.2 mph 0.01 in   Overcast
6:55 AM 37.4 °F 28.9 °F 33.8 °F 87% 29.50 in 10.0 mi ESE 13.8 mph 24.2 mph 0.01 in   Overcast
7:15 AM 37.4 °F 27.8 °F 32.0 °F 81% 29.48 in 10.0 mi ESE 17.3 mph - N/A   Overcast
7:35 AM 37.4 °F 28.2 °F 33.8 °F 87% 29.47 in 10.0 mi ESE 16.1 mph 21.9 mph N/A   Overcast
7:55 AM 37.4 °F 28.5 °F 33.8 °F 87% 29.46 in 10.0 mi ESE 15.0 mph 20.7 mph N/A   Overcast
8:15 AM 37.4 °F 28.9 °F 33.8 °F 87% 29.45 in 10.0 mi SE 13.8 mph - N/A   Overcast
8:35 AM 37.4 °F 30.3 °F 33.8 °F 87% 29.46 in 10.0 mi SE 10.4 mph - N/A   Overcast
8:55 AM 37.4 °F - 33.8 °F 87% 29.48 in 10.0 mi Calm Calm - N/A   Overcast
9:15 AM 41.0 °F 39.0 °F 37.4 °F 87% 29.50 in 10.0 mi NE 3.5 mph - N/A   Overcast
9:55 AM 42.8 °F 37.0 °F 33.8 °F 70% 29.51 in 10.0 mi WSW 10.4 mph 17.3 mph N/A   Overcast
10:15 AM 42.8 °F 37.0 °F 32.0 °F 66% 29.50 in 10.0 mi SW 10.4 mph 17.3 mph N/A   Overcast
10:35 AM 41.0 °F 39.0 °F 30.2 °F 65% 29.49 in 10.0 mi West 3.5 mph - N/A   Overcast
10:55 AM 41.0 °F 34.3 °F 28.4 °F 61% 29.49 in 10.0 mi WSW 11.5 mph 17.3 mph N/A   Mostly Cloudy
11:15 AM 41.0 °F 37.1 °F 28.4 °F 61% 29.49 in 10.0 mi West 5.8 mph 20.7 mph N/A   Mostly Cloudy
11:35 AM 41.0 °F 34.7 °F 28.4 °F 61% 29.47 in 10.0 mi WSW 10.4 mph 17.3 mph N/A   Overcast
11:55 AM 41.0 °F 33.5 °F 28.4 °F 61% 29.49 in 10.0 mi West 13.8 mph 25.3 mph N/A   Overcast
12:15 PM 39.2 °F 34.2 °F 28.4 °F 65% 29.50 in 10.0 mi West 6.9 mph 18.4 mph N/A   Overcast
12:35 PM 39.2 °F 33.6 °F 26.6 °F 61% 29.50 in 10.0 mi WNW 8.1 mph 19.6 mph N/A   Overcast
12:55 PM 39.2 °F 32.0 °F 26.6 °F 61% 29.50 in 10.0 mi WNW 11.5 mph 17.3 mph N/A   Overcast
1:35 PM 37.4 °F 29.8 °F 21.2 °F 52% 29.52 in 10.0 mi WNW 11.5 mph 18.4 mph N/A   Clear
1:55 PM 39.2 °F 31.6 °F 19.4 °F 45% 29.52 in 10.0 mi West 12.7 mph 23.0 mph N/A   Mostly Cloudy
2:15 PM 37.4 °F 28.9 °F 21.2 °F 52% 29.52 in 10.0 mi West 13.8 mph 29.9 mph N/A   Overcast
2:35 PM 39.2 °F 31.6 °F 21.2 °F 49% 29.53 in 10.0 mi WNW 12.7 mph 20.7 mph N/A   Mostly Cloudy
2:55 PM 37.4 °F 29.8 °F 19.4 °F 48% 29.53 in 10.0 mi WNW 11.5 mph 18.4 mph N/A   Scattered Clouds
3:15 PM 35.6 °F 27.1 °F 17.6 °F 48% 29.54 in 10.0 mi WNW 12.7 mph 20.7 mph N/A   Scattered Clouds
3:35 PM 35.6 °F 28.0 °F 17.6 °F 48% 29.55 in 10.0 mi WNW 10.4 mph 18.4 mph N/A   Scattered Clouds
3:55 PM 35.6 °F 26.6 °F 15.8 °F 44% 29.55 in 10.0 mi WNW 13.8 mph 17.3 mph N/A   Scattered Clouds
4:15 PM 33.8 °F 27.0 °F 15.8 °F 48% 29.56 in 10.0 mi WNW 8.1 mph - N/A   Mostly Cloudy
4:35 PM 33.8 °F 25.3 °F 15.8 °F 48% 29.57 in 10.0 mi WNW 11.5 mph 20.7 mph N/A   Overcast
4:55 PM 33.8 °F 27.0 °F 17.6 °F 52% 29.58 in 10.0 mi West 8.1 mph 19.6 mph N/A   Overcast
5:15 PM 33.8 °F 25.8 °F 15.8 °F 48% 29.58 in 10.0 mi WNW 10.4 mph 20.7 mph N/A   Mostly Cloudy
5:35 PM 32.0 °F 24.2 °F 15.8 °F 51% 29.58 in 10.0 mi West 9.2 mph - N/A   Mostly Cloudy
5:55 PM 32.0 °F 22.5 °F 15.8 °F 51% 29.58 in 10.0 mi West 12.7 mph 17.3 mph N/A   Partly Cloudy
6:15 PM 32.0 °F 23.6 °F 14.0 °F 48% 29.58 in 10.0 mi West 10.4 mph 16.1 mph N/A   Clear
6:35 PM 30.2 °F 20.8 °F 14.0 °F 51% 29.59 in 10.0 mi West 11.5 mph 17.3 mph N/A   Clear
6:55 PM 30.2 °F 21.9 °F 15.8 °F 55% 29.59 in 10.0 mi West 9.2 mph - N/A   Mostly Cloudy
7:15 PM 30.2 °F 20.8 °F 14.0 °F 51% 29.58 in 10.0 mi West 11.5 mph - N/A   Partly Cloudy
7:35 PM 30.2 °F 25.4 °F 14.0 °F 51% 29.58 in 10.0 mi West 4.6 mph - N/A   Clear
7:55 PM 30.2 °F 21.9 °F 15.8 °F 55% 29.59 in 10.0 mi WSW 9.2 mph - N/A   Mostly Cloudy
8:15 PM 30.2 °F 22.6 °F 15.8 °F 55% 29.59 in 10.0 mi SW 8.1 mph - N/A   Overcast
8:35 PM 32.0 °F 25.6 °F 14.0 °F 48% 29.60 in 10.0 mi SW 6.9 mph - N/A   Overcast
8:55 PM 30.2 °F 24.3 °F 15.8 °F 55% 29.60 in 10.0 mi SW 5.8 mph - N/A   Overcast
9:15 PM 32.0 °F 25.6 °F 15.8 °F 51% 29.59 in 10.0 mi SW 6.9 mph - N/A   Overcast
9:35 PM 30.2 °F 23.4 °F 15.8 °F 55% 29.59 in 10.0 mi South 6.9 mph - N/A   Overcast
9:55 PM 32.0 °F 28.7 °F 15.8 °F 51% 29.58 in 10.0 mi SW 3.5 mph - N/A   Overcast
10:15 PM 32.0 °F 23.6 °F 15.8 °F 51% 29.58 in 10.0 mi WSW 10.4 mph - N/A   Overcast
10:35 PM 32.0 °F 24.2 °F 17.6 °F 55% 29.57 in 10.0 mi SW 9.2 mph 17.3 mph N/A   Overcast
10:55 PM 32.0 °F 23.6 °F 17.6 °F 55% 29.56 in 10.0 mi WSW 10.4 mph - N/A   Overcast
11:15 PM 32.0 °F 24.8 °F 17.6 °F 55% 29.55 in 10.0 mi West 8.1 mph - N/A   Overcast
11:35 PM 32.0 °F 26.4 °F 17.6 °F 55% 29.55 in 10.0 mi WSW 5.8 mph - N/A   Overcast
11:55 PM 32.0 °F 24.2 °F 19.4 °F 60% 29.53 in 10.0 mi SW 9.2 mph - N/A   Overcast